Orange, MA

2:25 AM EDT on August 22, 2017 (GMT -0400)
Orange Municipal

Weather History for KORE - February, 2012

Change the Weather History Date:

Sunday, February 12, 2012

  Actual Average Record
Temperature  
Mean Temperature 17 °F -  
Max Temperature 24 °F 32 °F 52 °F (1999)
Min Temperature 10 °F 12 °F -9 °F (2014)
Degree Days  
Heating Degree Days 48    
Moisture  
Dew Point -1 °F    
Average Humidity 45    
Maximum Humidity 56    
Minimum Humidity 34    
Precipitation  
Precipitation 0.00 in - - ()
Sea Level Pressure  
Sea Level Pressure 29.74 in    
Wind  
Wind Speed 13 mph (NW)    
Max Wind Speed 20 mph    
Max Gust Speed 29 mph    
Visibility 10 miles    
Events      
Averages and records for this station are not official NWS values.
T = Trace of Precipitation, MM = Missing Value Source: NWS Daily Summary

Daily Weather History Graph

Daily Weather History Graph

Search for Another Location

Airport or City:

Trip Planner

Search our weather history database for the weather conditions in past years. The results will help you decide how hot, cold, wet, or windy it might be!

Date:

Astronomy

Feb. 12, 2012 Rise Set
Actual Time 6:50 AM EST 5:16 PM EST
Civil Twilight 6:21 AM EST 5:45 PM EST
Nautical Twilight 5:48 AM EST 6:18 PM EST
Astronomical Twilight 5:15 AM EST 6:51 PM EST
Moon 11:21 PM EST (2/12) 8:58 AM EST (2/12)
Length of Visible Light 11h 24m
Length of Day
10h 25m
Waning Gibbous, 72% of the Moon is Illuminated
Feb 12
Waning Gibbous
Feb 14
Last Quarter
Feb 21
New
Feb 29
First Quarter
Mar 8
Full

Hourly Weather History & Observations

Time (EST) Temp. Windchill Dew Point Humidity Pressure Visibility Wind Dir Wind Speed Gust Speed Precip Events Conditions
12:52 AM 18.0 °F 1.7 °F 3.0 °F 52% 29.66 in 10.0 mi NNW 19.6 mph 26.5 mph N/A   Clear
1:52 AM 15.1 °F -1.1 °F -0.9 °F 49% 29.70 in 10.0 mi NNW 17.3 mph 24.2 mph N/A   Clear
2:52 AM 14.0 °F -0.8 °F -2.9 °F 47% 29.71 in 10.0 mi NNW 13.8 mph 18.4 mph N/A   Clear
3:52 AM 12.9 °F -2.8 °F -4.0 °F 47% 29.71 in 10.0 mi NNW 15.0 mph - N/A   Clear
4:52 AM 12.9 °F -0.2 °F -2.9 °F 49% 29.72 in 10.0 mi NNW 10.4 mph - N/A   Clear
5:52 AM 10.9 °F 2.9 °F -2.0 °F 56% 29.71 in 10.0 mi NNW 4.6 mph - N/A   Clear
6:52 AM 12.0 °F 5.9 °F -2.0 °F 53% 29.72 in 10.0 mi West 3.5 mph - N/A   Clear
7:52 AM 12.9 °F 1.6 °F -2.9 °F 49% 29.74 in 10.0 mi NW 8.1 mph - N/A   Clear
8:52 AM 15.1 °F 3.3 °F -2.0 °F 47% 29.74 in 10.0 mi NW 9.2 mph - N/A   Clear
9:52 AM 18.0 °F 4.8 °F -2.0 °F 41% 29.73 in 10.0 mi WNW 12.7 mph 19.6 mph N/A   Clear
10:52 AM 18.0 °F 2.2 °F -2.0 °F 41% 29.73 in 10.0 mi NW 18.4 mph 26.5 mph N/A   Mostly Cloudy
11:52 AM 19.0 °F 6.8 °F -0.9 °F 42% 29.71 in 10.0 mi WNW 11.5 mph 24.2 mph N/A   Clear
12:52 PM 21.9 °F 8.7 °F -0.9 °F 37% 29.67 in 10.0 mi West 15.0 mph 24.2 mph N/A   Clear
1:52 PM 23.0 °F 8.3 °F -0.9 °F 35% 29.67 in 10.0 mi West 19.6 mph 28.8 mph N/A   Clear
2:52 PM 24.1 °F 10.6 °F -0.9 °F 34% 29.67 in 10.0 mi WNW 17.3 mph 26.5 mph N/A   Scattered Clouds
3:52 PM 24.1 °F 12.0 °F 1.0 °F 37% 29.69 in 10.0 mi WNW 13.8 mph 20.7 mph N/A   Scattered Clouds
4:52 PM 21.9 °F 10.4 °F 1.9 °F 42% 29.72 in 10.0 mi West 11.5 mph 20.7 mph N/A   Mostly Cloudy
5:52 PM 19.9 °F 7.9 °F 3.0 °F 48% 29.76 in 10.0 mi WNW 11.5 mph 17.3 mph N/A   Clear
6:52 PM 19.0 °F 11.1 °F -0.0 °F 43% 29.80 in 10.0 mi NW 5.8 mph - N/A   Partly Cloudy
7:52 PM 18.0 °F 5.4 °F -0.0 °F 45% 29.83 in 10.0 mi WNW 11.5 mph 21.9 mph N/A   Mostly Cloudy
8:52 PM 16.0 °F 4.4 °F -0.9 °F 47% 29.86 in 10.0 mi NW 9.2 mph - N/A   Clear
9:52 PM 15.1 °F 3.3 °F -2.9 °F 45% 29.88 in 10.0 mi WNW 9.2 mph - N/A   Partly Cloudy
10:52 PM 15.1 °F 5.2 °F -2.9 °F 45% 29.88 in 10.0 mi Variable 6.9 mph - N/A   Overcast
11:52 PM 14.0 °F 6.5 °F -2.0 °F 49% 29.89 in 10.0 mi West 4.6 mph - N/A   Partly Cloudy